When you browse on this site, cookies collect data to enhance your experience and personalize the content and advertising you see.
Visit our Privacy Policy to learn more. By continuing to use the site, you agree to this use of cookies and data.
  • en France
  • Liste des pays
  • À 7 jours
  • Température de l'eau
  • Carte météo
  • Widgets météo
  • user-avatar
    Se connecter

    Météo par heure à Phnom Penh

    Ce jour, 9 Avril, Jeudi

    Heure Température Précipitation Vent Pression Humidité
    00:00 +29°C° 0.4 mm 3 m/s 757 mmHg 75%
    01:00 +29°C° 0 mm 3 m/s 757 mmHg 73%
    02:00 +29°C° 1.2 mm 3 m/s 757 mmHg 76%
    03:00 +28°C° 1.2 mm 3 m/s 757 mmHg 79%
    04:00 +27°C° 1.2 mm 3 m/s 757 mmHg 82%
    05:00 +28°C° 0.1 mm 3 m/s 757 mmHg 81%
    06:00 +28°C° 0.1 mm 2 m/s 758 mmHg 80%
    07:00 +29°C° 0 mm 3 m/s 758 mmHg 78%
    08:00 +31°C° 0 mm 3 m/s 758 mmHg 70%
    09:00 +34°C° 0 mm 3 m/s 759 mmHg 61%
    10:00 +35°C° 0 mm 3 m/s 759 mmHg 53%
    11:00 +36°C° 0 mm 3 m/s 758 mmHg 49%
    12:00 +37°C° 0 mm 3 m/s 757 mmHg 46%
    13:00 +38°C° 0 mm 3 m/s 756 mmHg 42%
    14:00 +38°C° 0 mm 3 m/s 756 mmHg 42%
    15:00 +38°C° 0 mm 3 m/s 755 mmHg 41%
    16:00 +38°C° 0 mm 2 m/s 755 mmHg 40%
    17:00 +37°C° 0 mm 2 m/s 755 mmHg 44%
    18:00 +36°C° 0 mm 2 m/s 755 mmHg 47%
    19:00 +35°C° 0 mm 2 m/s 755 mmHg 51%
    20:00 +34°C° 1.5 mm 2 m/s 756 mmHg 59%
    21:00 +31°C° 1.5 mm 2 m/s 757 mmHg 68%
    22:00 +29°C° 1.5 mm 2 m/s 758 mmHg 77%
    23:00 +29°C° 0.5 mm 2 m/s 758 mmHg 77%

    Demain, 10 Avril, Vendredi

    Heure Température Précipitation Vent Pression Humidité
    00:00 +29°C° 0.5 mm 2 m/s 757 mmHg 78%
    01:00 +29°C° 0.5 mm 3 m/s 757 mmHg 79%
    02:00 +29°C° 0.9 mm 2 m/s 757 mmHg 80%
    03:00 +29°C° 0.9 mm 2 m/s 757 mmHg 81%
    04:00 +29°C° 0.9 mm 2 m/s 757 mmHg 82%
    05:00 +29°C° 2.5 mm 2 m/s 757 mmHg 80%
    06:00 +29°C° 2.5 mm 2 m/s 757 mmHg 78%
    07:00 +29°C° 2.5 mm 2 m/s 758 mmHg 76%
    08:00 +30°C° 2.5 mm 2 m/s 758 mmHg 72%
    09:00 +31°C° 2.5 mm 2 m/s 759 mmHg 68%
    10:00 +33°C° 2.5 mm 3 m/s 759 mmHg 63%
    11:00 +34°C° 1.4 mm 2 m/s 758 mmHg 61%
    12:00 +34°C° 1.4 mm 2 m/s 757 mmHg 59%
    13:00 +35°C° 1.4 mm 2 m/s 757 mmHg 56%
    14:00 +34°C° 0.1 mm 2 m/s 756 mmHg 57%
    15:00 +34°C° 0.1 mm 2 m/s 756 mmHg 57%
    16:00 +34°C° 0.1 mm 2 m/s 755 mmHg 57%
    17:00 +34°C° 0 mm 2 m/s 755 mmHg 60%
    18:00 +32°C° 0 mm 2 m/s 756 mmHg 62%
    19:00 +31°C° 0 mm 1 m/s 756 mmHg 65%
    20:00 +31°C° 0.1 mm 1 m/s 757 mmHg 66%
    21:00 +31°C° 0.1 mm 2 m/s 757 mmHg 67%
    22:00 +30°C° 0.1 mm 2 m/s 758 mmHg 68%
    23:00 +30°C° 0.3 mm 2 m/s 758 mmHg 72%

    Après-demain, 11 Avril, Samedi

    Heure Température Précipitation Vent Pression Humidité
    00:00 +29°C° 0.3 mm 3 m/s 758 mmHg 75%
    01:00 +28°C° 0.3 mm 4 m/s 757 mmHg 79%
    02:00 +28°C° 0.2 mm 3 m/s 757 mmHg 80%
    03:00 +28°C° 0.2 mm 3 m/s 757 mmHg 80%
    04:00 +28°C° 0.2 mm 2 m/s 757 mmHg 81%
    05:00 +28°C° 0 mm 2 m/s 757 mmHg 79%
    06:00 +28°C° 0 mm 2 m/s 758 mmHg 78%
    07:00 +29°C° 0 mm 3 m/s 758 mmHg 77%
    08:00 +30°C° 0 mm 3 m/s 758 mmHg 71%
    09:00 +31°C° 0 mm 3 m/s 759 mmHg 66%
    10:00 +34°C° 0 mm 3 m/s 759 mmHg 60%
    11:00 +34°C° 0.2 mm 2 m/s 758 mmHg 58%
    12:00 +35°C° 0.2 mm 2 m/s 757 mmHg 56%
    13:00 +36°C° 0.2 mm 2 m/s 756 mmHg 53%
    14:00 +35°C° 0.1 mm 1 m/s 756 mmHg 52%
    15:00 +35°C° 0.1 mm 1 m/s 755 mmHg 50%
    16:00 +36°C° 0.1 mm 1 m/s 754 mmHg 49%
    17:00 +35°C° 0 mm 1 m/s 755 mmHg 51%
    18:00 +35°C° 0 mm 2 m/s 755 mmHg 53%
    19:00 +35°C° 0 mm 2 m/s 756 mmHg 56%
    20:00 +34°C° 0.2 mm 2 m/s 756 mmHg 58%
    21:00 +32°C° 0.2 mm 2 m/s 757 mmHg 60%
    22:00 +32°C° 0.2 mm 2 m/s 757 mmHg 62%
    23:00 +31°C° 0.3 mm 3 m/s 757 mmHg 65%

    12 Avril, Dimanche

    Heure Température Précipitation Vent Pression Humidité
    00:00 +30°C° 0.3 mm 3 m/s 757 mmHg 68%
    01:00 +30°C° 0.3 mm 4 m/s 757 mmHg 71%
    02:00 +29°C° 0 mm 4 m/s 756 mmHg 74%
    03:00 +29°C° 0 mm 4 m/s 756 mmHg 77%
    04:00 +29°C° 0 mm 4 m/s 756 mmHg 80%
    05:00 +29°C° 0 mm 4 m/s 756 mmHg 78%
    06:00 +29°C° 0 mm 4 m/s 757 mmHg 76%
    07:00 +29°C° 0 mm 3 m/s 757 mmHg 75%
    08:00 +31°C° 0 mm 3 m/s 757 mmHg 67%
    09:00 +33°C° 0 mm 3 m/s 758 mmHg 59%
    10:00 +35°C° 0 mm 3 m/s 758 mmHg 51%
    11:00 +36°C° 0 mm 3 m/s 757 mmHg 48%
    12:00 +37°C° 0 mm 2 m/s 756 mmHg 44%
    13:00 +38°C° 0 mm 2 m/s 755 mmHg 41%
    14:00 +38°C° 0 mm 2 m/s 755 mmHg 41%
    15:00 +38°C° 0 mm 2 m/s 754 mmHg 40%
    16:00 +39°C° 0 mm 3 m/s 754 mmHg 40%
    17:00 +37°C° 0.2 mm 4 m/s 754 mmHg 48%
    18:00 +35°C° 0.2 mm 5 m/s 754 mmHg 57%
    19:00 +33°C° 0.2 mm 6 m/s 755 mmHg 65%
    20:00 +32°C° 0.6 mm 5 m/s 755 mmHg 67%
    21:00 +30°C° 0.6 mm 4 m/s 756 mmHg 69%
    22:00 +29°C° 0.6 mm 2 m/s 757 mmHg 71%
    23:00 +29°C° 0.2 mm 2 m/s 757 mmHg 73%

    13 Avril, Lundi

    Heure Température Précipitation Vent Pression Humidité
    00:00 +28°C° 0.2 mm 2 m/s 757 mmHg 74%
    01:00 +28°C° 0.2 mm 2 m/s 757 mmHg 76%
    02:00 +28°C° 0 mm 2 m/s 756 mmHg 76%
    03:00 +28°C° 0 mm 1 m/s 756 mmHg 77%
    04:00 +28°C° 0 mm 1 m/s 755 mmHg 77%
    05:00 +28°C° 0 mm 1 m/s 756 mmHg 77%
    06:00 +28°C° 0 mm 1 m/s 757 mmHg 76%
    07:00 +29°C° 0 mm 2 m/s 757 mmHg 75%
    08:00 +30°C° 0 mm 2 m/s 757 mmHg 68%
    09:00 +31°C° 0 mm 2 m/s 757 mmHg 62%
    10:00 +34°C° 0 mm 2 m/s 758 mmHg 55%
    11:00 +35°C° 0 mm 2 m/s 757 mmHg 49%
    12:00 +36°C° 0 mm 3 m/s 756 mmHg 43%
    13:00 +38°C° 0 mm 3 m/s 756 mmHg 37%
    14:00 +38°C° 0 mm 3 m/s 755 mmHg 37%
    15:00 +38°C° 0 mm 3 m/s 755 mmHg 36%
    16:00 +38°C° 0 mm 3 m/s 754 mmHg 36%
    17:00 +37°C° 0 mm 3 m/s 754 mmHg 42%
    18:00 +35°C° 0 mm 3 m/s 755 mmHg 48%
    19:00 +34°C° 0 mm 3 m/s 755 mmHg 55%
    20:00 +33°C° 0.7 mm 3 m/s 756 mmHg 60%
    21:00 +31°C° 0.7 mm 3 m/s 757 mmHg 65%
    22:00 +30°C° 0.7 mm 2 m/s 757 mmHg 70%
    23:00 +29°C° 1.2 mm 2 m/s 757 mmHg 72%

    14 Avril, Mardi

    Heure Température Précipitation Vent Pression Humidité
    00:00 +29°C° 1.2 mm 2 m/s 757 mmHg 74%
    01:00 +29°C° 1.2 mm 1 m/s 757 mmHg 76%
    02:00 +29°C° 0.8 mm 1 m/s 756 mmHg 77%
    03:00 +28°C° 0.8 mm 1 m/s 756 mmHg 77%
    04:00 +28°C° 0.8 mm 1 m/s 756 mmHg 78%
    05:00 +28°C° 0 mm 2 m/s 757 mmHg 76%
    06:00 +28°C° 0 mm 2 m/s 757 mmHg 74%
    07:00 +28°C° 0 mm 3 m/s 757 mmHg 72%
    08:00 +29°C° 0 mm 3 m/s 758 mmHg 68%
    09:00 +30°C° 0 mm 2 m/s 758 mmHg 64%
    10:00 +31°C° 0 mm 2 m/s 758 mmHg 60%
    11:00 +32°C° 0 mm 2 m/s 758 mmHg 57%
    12:00 +34°C° 0 mm 2 m/s 757 mmHg 54%
    13:00 +35°C° 0 mm 2 m/s 756 mmHg 51%
    14:00 +35°C° 0 mm 3 m/s 756 mmHg 50%
    15:00 +35°C° 0 mm 3 m/s 755 mmHg 49%
    16:00 +36°C° 0 mm 4 m/s 755 mmHg 48%
    17:00 +34°C° 0.5 mm 4 m/s 756 mmHg 54%
    18:00 +32°C° 0.5 mm 4 m/s 756 mmHg 60%
    19:00 +29°C° 0.5 mm 4 m/s 756 mmHg 66%
    20:00 +29°C° 0.2 mm 3 m/s 757 mmHg 66%
    21:00 +29°C° 0.2 mm 2 m/s 758 mmHg 67%
    22:00 +29°C° 0.2 mm 1 m/s 758 mmHg 67%
    23:00 +29°C° 0 mm 1 m/s 758 mmHg 68%
    Voir plus